Volver al catálogo

OPTUS D1

ActivoComunicacionesGEO
NORAD 29495·PAYLOAD·🇦🇺 Australia

Lanzado Oct 13, 2006 desde Guiana Space Centre

Loading…

TLE

ActualizadoSource: Space-Track

Época: Sep 14, 2026, 15:19 UTC

1 29495U 06043B   26257.63832590 -.00000191  00000-0  00000-0 0  9992
2 29495   3.2590  78.4819 0003555  91.7586 205.1392  1.00270720 73013

Sigue OPTUS D1 en tiempo real con AllMySat

Download on the App Store